NIGCOMSAT 1R            
1 38014U 11077A   19259.77271701  .00000138  00000-0  00000+0 0  9991
2 38014   0.0403  92.0576 0002616 348.7878 235.2449  1.00272802 28308
CZ-3B R/B               
1 38015U 11077B   19257.26682657  .00298196  57842-6  66843-3 0  9996
2 38015  23.6350 276.8592 5818615 264.2153  30.5563  4.45682227 82231
CZ-3B DEB               
1 40179U 11077C   19259.22312031 -.00000271  00000-0 -46971-3 0  9999
2 40179  25.2104 264.3853 7433723  71.4808 351.0928  1.91755331 40765
CZ-3B DEB               
1 40180U 11077D   19256.04400066 -.00000154  00000-0 -26259-3 0  9991
2 40180  23.4593 212.3314 7480125 193.3313 121.8776  1.92969687 44734
CZ-3B DEB               
1 40181U 11077E   19252.87017275  .00000027  00000-0 -15506-4 0  9997
2 40181  21.5693 220.9097 7556644 212.4647  62.1218  1.88834186 34053
CZ-3B DEB               
1 40182U 11077F   19258.03872885 -.00000255  00000-0 -52730-3 0  9991
2 40182  22.6095 252.3332 7527368 144.8033 302.8156  1.84404258955484
CZ-3B DEB               
1 40183U 11077G   19258.04770232 -.00000224  00000-0 -63950-3 0  9998
2 40183  21.4981 263.2188 7549612 146.5736 299.7255  1.81788909 41644
CZ-3B DEB               
1 40184U 11077H   19259.54785436 -.00000049  00000-0 -66444-4 0  9994
2 40184  21.5402 223.1953 7580524 209.2911  68.9383  1.86332865 44505
CZ-3B DEB               
1 40185U 11077J   19258.24257048 -.00000314  00000-0  14078-3 0  9993
2 40185  24.8810 235.0374 7461530 127.3837 326.0693  1.91395135 44086
CZ-3B DEB               
1 40186U 11077K   19256.35006845 -.00000070  00000-0  00000+0 0  9996
2 40186  26.5766 345.1386 7312190 291.6647  24.8905  1.88693595 53269
CZ-3B DEB               
1 40187U 11077L   19256.36304420 -.00000036  00000-0  37506-3 0  9995
2 40187  26.2575 297.4061 7390849   7.9725 359.4251  1.90872933 47448
CZ-3B DEB               
1 40188U 11077M   19258.15742018  .00000033  00000-0  37544-2 0  9991
2 40188  26.6282 287.1943 7413328  16.2581 358.5779  1.91125194 47619
CZ-3B DEB               
1 40189U 11077N   19259.60535254 -.00000158  00000-0 -39976-3 0  9997
2 40189  26.7281 307.9798 7374505 345.8678   1.6858  1.90330729 47367
CZ-3B DEB               
1 40191U 11077Q   19259.49119024  .00000016  00000-0 -10553-2 0  9991
2 40191  25.7101 238.7073 7443551 101.8304 342.5004  1.93744545952375
CZ-3B DEB               
1 40838U 11077T   19257.24338598 -.00000227  00000-0  16716-2 0  9990
2 40838  25.7641 227.4237 7456180 120.4265 332.0758  1.93819498 32227
CZ-3B DEB               
1 40839U 11077U   19258.58533389 -.00000150  00000-0  85686-3 0  9992
2 40839  25.2793 210.4731 7463763 162.7804 252.7225  1.93836640 40207
CZ-3B DEB               
1 40840U 11077V   19255.47263314 -.00000048  00000-0  11457-1 0  9996
2 40840  27.8475 303.9359 7345500 331.6503   3.2623  1.92894290 39897
CZ-3B DEB               
1 40841U 11077W   19257.40459158  .00000079  00000-0  95283-2 0  9998
2 40841  27.3563 302.9674 7331762 341.8240   2.1533  1.93622859 40101
CZ-3B DEB               
1 40842U 11077X   19255.39676387 -.00000286  00000-0 -48559-4 0  9998
2 40842  22.3813 319.9406 7557953  36.9893 356.3288  1.76536303 36514
CZ-3B DEB               
1 40843U 11077Y   19255.86719837  .00000177  00000-0 -31166-3 0  9992
2 40843  21.3952 210.9283 7511424 230.9610  34.9098  1.94119817 44094
CZ-3B DEB               
1 40845U 11077AA  19257.03877602  .00000170  00000-0  23363-3 0  9992
2 40845  21.3424 201.1358 7557923 247.6524  21.5127  1.91726532 43659
CZ-3B DEB               
1 40847U 11077AC  19256.80155710 -.00000367  00000-0  16456-4 0  9992
2 40847  24.9451 159.3813 7381097 252.6820  20.7661  2.08907760 34985
CZ-3B DEB               
1 40848U 11077AD  19256.48666189  .00000858  00000-0  55479-1 0  9993
2 40848  26.7058 301.9047 7386963 355.6005   0.6949  1.90632872 31970
CZ-3B DEB               
1 40849U 11077AE  19258.25976205 -.00000089  00000-0  16275-2 0  9993
2 40849  25.7777 291.3058 7408703  24.0446 357.7438  1.90619915 44836
CZ-3B DEB               
1 40850U 11077AF  19252.27572785 -.00000382  00000-0  43584-3 0  9996
2 40850  24.8201 236.9363 7449009 125.3274 327.8173  1.91976392 31715
CZ-3B DEB               
1 40851U 11077AG  19255.45756450 -.00000052  00000-0  25100-2 0  9990
2 40851  26.2691 312.1015 7368069 347.7951   1.5130  1.90176786 39225
CZ-3B DEB               
1 41119U 11077AJ  19256.99749493 -.00000062  00000-0  00000-0 0  9998
2 41119  20.5822 129.8056 7307772 105.7806 339.1744  1.69768195 29079
CZ-3B DEB               
1 42471U 11077AL  19257.18628808 -.00000084  00000-0  59766-3 0  9998
2 42471  25.4017 271.6876 7478136  56.9911 353.7773  1.89033227 30006
CZ-3B DEB               
1 42472U 11077AM  19258.92397608 -.00000141  00000-0  00000+0 0  9990
2 42472  24.7544 101.7946 7210292 107.0505 337.6624  1.79345020 30911
CZ-3B DEB               
1 42473U 11077AN  19253.98051272 -.00000291  00000-0  00000-0 0  9993
2 42473  22.6774 166.5737 7155013  21.6933 357.2878  1.69213846 21262
CZ-3B DEB               
1 42474U 11077AP  19257.02247977 -.00000262  00000-0  00000-0 0  9990
2 42474  22.0164 179.1760 7148537   6.5707 359.1077  1.66995000 27602
CZ-3B DEB               
1 42475U 11077AQ  19258.31811138 -.00000076  00000-0  17977-2 0  9996
2 42475  25.4837 266.4351 7454827  63.5658 352.6457  1.91065308 29781